TimeEDT,TemperatureF,Dew PointF,Humidity,Sea Level PressureIn,VisibilityMPH,Wind Direction,Wind SpeedMPH,Gust SpeedMPH,PrecipitationIn,Events,Conditions,WindDirDegrees,DateUTC
12:35 AM,55.4,53.6,94,29.47,4.0,WSW,24.2,34.5,0.00,Rain,Light Rain,250,2012-10-15 04:35:00
12:53 AM,54.0,52.0,93,29.48,7.0,West,19.6,28.8,0.00,Rain,Light Rain,270,2012-10-15 04:53:00
1:08 AM,53.6,51.8,94,29.51,2.5,West,21.9,26.5,0.03,Rain,Rain,270,2012-10-15 05:08:00
1:18 AM,51.8,50.0,94,29.52,5.0,West,20.7,31.1,N/A,Rain,Light Rain,280,2012-10-15 05:18:00
1:33 AM,51.8,48.2,88,29.53,10.0,West,23.0,32.2,0.04,,Overcast,270,2012-10-15 05:33:00
1:53 AM,51.1,48.0,89,29.54,10.0,West,20.7,29.9,0.04,,Overcast,280,2012-10-15 05:53:00
2:53 AM,50.0,45.0,83,29.57,10.0,West,21.9,28.8,N/A,,Overcast,270,2012-10-15 06:53:00
3:53 AM,50.0,43.0,77,29.58,10.0,West,21.9,31.1,N/A,,Overcast,280,2012-10-15 07:53:00
4:53 AM,48.0,45.0,89,29.61,10.0,West,18.4,24.2,0.00,Rain,Light Rain,270,2012-10-15 08:53:00
5:44 AM,48.2,44.6,87,29.63,10.0,West,13.8,23.0,0.00,,Overcast,270,2012-10-15 09:44:00
5:53 AM,48.0,42.1,80,29.63,10.0,West,23.0,31.1,0.00,,Overcast,280,2012-10-15 09:53:00
6:53 AM,48.0,41.0,77,29.66,10.0,West,15.0,21.9,N/A,,Overcast,270,2012-10-15 10:53:00
7:53 AM,46.9,39.9,77,29.70,10.0,West,16.1,-,N/A,,Overcast,260,2012-10-15 11:53:00
8:53 AM,46.9,39.9,77,29.71,10.0,West,17.3,21.9,N/A,,Overcast,260,2012-10-15 12:53:00
9:53 AM,46.9,39.0,74,29.72,10.0,West,20.7,29.9,N/A,,Overcast,280,2012-10-15 13:53:00
10:53 AM,48.0,39.9,74,29.74,10.0,West,16.1,21.9,N/A,,Overcast,270,2012-10-15 14:53:00
11:53 AM,48.0,39.9,74,29.76,10.0,WNW,20.7,25.3,N/A,,Overcast,290,2012-10-15 15:53:00
12:53 PM,48.0,39.9,74,29.78,10.0,WNW,19.6,28.8,N/A,,Overcast,290,2012-10-15 16:53:00
1:53 PM,48.0,39.9,74,29.79,10.0,West,18.4,-,N/A,,Overcast,280,2012-10-15 17:53:00
2:53 PM,48.0,41.0,77,29.81,10.0,WNW,19.6,24.2,N/A,,Overcast,290,2012-10-15 18:53:00
3:53 PM,48.0,43.0,83,29.82,10.0,WNW,10.4,-,0.00,,Overcast,290,2012-10-15 19:53:00
4:39 PM,46.4,42.8,87,29.83,10.0,WNW,16.1,26.5,0.00,,Mostly Cloudy,290,2012-10-15 20:39:00
4:53 PM,46.9,42.1,83,29.84,10.0,West,16.1,21.9,0.00,,Mostly Cloudy,280,2012-10-15 20:53:00
5:53 PM,46.9,41.0,80,29.87,9.0,WNW,16.1,21.9,N/A,,Mostly Cloudy,300,2012-10-15 21:53:00
6:03 PM,46.4,42.8,87,29.85,8.0,WNW,12.7,-,0.00,Rain,Light Rain,290,2012-10-15 22:03:00
6:31 PM,46.4,42.8,87,29.86,10.0,NW,11.5,-,0.00,,Overcast,310,2012-10-15 22:31:00
6:53 PM,45.0,41.0,86,29.87,10.0,WNW,9.2,-,0.00,,Overcast,290,2012-10-15 22:53:00
7:00 PM,44.6,41.0,87,29.86,10.0,WNW,6.9,-,0.00,,Light Drizzle,300,2012-10-15 23:00:00
7:20 PM,44.6,41.0,87,29.86,10.0,West,10.4,-,0.00,,Overcast,280,2012-10-15 23:20:00
7:53 PM,46.0,41.0,83,29.89,10.0,WNW,10.4,-,0.00,,Overcast,290,2012-10-15 23:53:00
8:53 PM,46.0,41.0,83,29.90,10.0,WNW,9.2,-,N/A,,Overcast,290,2012-10-16 00:53:00
9:30 PM,44.6,39.2,81,29.90,10.0,WNW,10.4,-,0.00,Rain,Light Rain,290,2012-10-16 01:30:00
9:53 PM,45.0,39.9,82,29.92,10.0,NW,9.2,-,0.00,,Overcast,310,2012-10-16 01:53:00
10:16 PM,44.6,39.2,81,29.91,10.0,WNW,10.4,-,N/A,,Overcast,300,2012-10-16 02:16:00
10:53 PM,45.0,37.9,76,29.93,10.0,WNW,9.2,-,N/A,,Overcast,300,2012-10-16 02:53:00
11:53 PM,45.0,35.1,68,29.93,10.0,WNW,6.9,-,N/A,,Overcast,300,2012-10-16 03:53:00